Torna al catalogo

STARLINK-35252

AttivoComunicazioniVLEO
NORAD 65850·PAYLOAD·🇺🇸 United States

Lanciato Sep 29, 2025 da Vandenberg Space Force Base

Loading…

Prossimi Passaggi (prossime 24 ore)

TLE

AggiornatoSource: CelesTrak SupGP

Epoca: Sep 14, 2026, 21:35 UTC

1 65850C 25221AD  26257.89979167  .00039757  00000+0  11748-2 0  2574
2 65850  53.1564 288.0091 0001144  95.2507 245.8503 15.34366848    12

Traccia STARLINK-35252 in tempo reale con AllMySat

Download on the App Store